owner,sensor,date,latitude,longitude,vertical_datum,direction_of_sea_water_velocity,sea_water_speed,upward_sea_water_velocity,qcFlag 
TABS,ioos:station:TABS:E:1,1995-12-01T00:00:00Z,27.3383,-97.1000,2.0,162.1886811,30.20786653,-99999.0,'11111222,11111222,99999999' 
TABS,ioos:station:TABS:E:1,1995-12-01T00:30:00Z,27.3383,-97.1000,2.0,161.9238515,29.77975319,-99999.0,'11111222,11111222,99999999' 
TABS,ioos:station:TABS:E:1,1995-12-01T01:00:00Z,27.3383,-97.1000,2.0,161.4714163,29.07718178,-99999.0,'11111222,11111222,99999999' 
TABS,ioos:station:TABS:E:1,1995-12-01T01:30:00Z,27.3383,-97.1000,2.0,158.9049064,26.50631057,-99999.0,'11111222,11111222,99999999' 
TABS,ioos:station:TABS:E:1,1995-12-01T02:00:00Z,27.3383,-97.1000,2.0,168.8573352,20.8021273,-99999.0,'11111222,11111222,99999999' 
TABS,ioos:station:TABS:E:1,1995-12-01T02:30:00Z,27.3383,-97.1000,2.0,189.403041,25.52295633,-99999.0,'11111222,11111222,99999999' 
TABS,ioos:station:TABS:E:1,1995-12-01T03:00:00Z,27.3383,-97.1000,2.0,197.4364733,26.86446352,-99999.0,'11111222,11111222,99999999' 
TABS,ioos:station:TABS:E:1,1995-12-01T03:30:00Z,27.3383,-97.1000,2.0,191.779548,28.45936928,-99999.0,'11111222,11111222,99999999' 
TABS,ioos:station:TABS:E:1,1995-12-01T04:00:00Z,27.3383,-97.1000,2.0,194.5327984,29.09081642,-99999.0,'11111222,11111222,99999999' 
TABS,ioos:station:TABS:E:1,1995-12-01T04:30:00Z,27.3383,-97.1000,2.0,195.7821886,28.49419064,-99999.0,'11111222,11111222,99999999' 
TABS,ioos:station:TABS:E:1,1995-12-01T05:00:00Z,27.3383,-97.1000,2.0,193.6108691,29.74538788,-99999.0,'11111222,11111222,99999999' 
TABS,ioos:station:TABS:E:1,1995-12-01T05:30:00Z,27.3383,-97.1000,2.0,196.706834,28.00205171,-99999.0,'11111222,11111222,99999999' 
TABS,ioos:station:TABS:E:1,1995-12-01T06:00:00Z,27.3383,-97.1000,2.0,200.0697057,26.48853526,-99999.0,'11111222,11111222,99999999' 
TABS,ioos:station:TABS:E:1,1995-12-01T06:30:00Z,27.3383,-97.1000,2.0,200.7518338,25.65439923,-99999.0,'11111222,11111222,99999999' 
TABS,ioos:station:TABS:E:1,1995-12-01T07:00:00Z,27.3383,-97.1000,2.0,198.5296453,26.71495836,-99999.0,'11111222,11111222,99999999' 
TABS,ioos:station:TABS:E:1,1995-12-01T07:30:00Z,27.3383,-97.1000,2.0,190.4824874,26.21757617,-99999.0,'11111222,11111222,99999999' 
TABS,ioos:station:TABS:E:1,1995-12-01T08:00:00Z,27.3383,-97.1000,2.0,186.075104,25.32221949,-99999.0,'11111222,11111222,99999999' 
TABS,ioos:station:TABS:E:1,1995-12-01T08:30:00Z,27.3383,-97.1000,2.0,192.928376,27.97928698,-99999.0,'11111222,11111222,99999999' 
TABS,ioos:station:TABS:E:1,1995-12-01T09:00:00Z,27.3383,-97.1000,2.0,194.4044072,27.53563873,-99999.0,'11111222,11111222,99999999' 
TABS,ioos:station:TABS:E:1,1995-12-01T09:30:00Z,27.3383,-97.1000,2.0,196.0770664,27.44333981,-99999.0,'11111222,11111222,99999999' 
TABS,ioos:station:TABS:E:1,1995-12-01T10:00:00Z,27.3383,-97.1000,2.0,199.8937839,25.83153499,-99999.0,'11111222,11111222,99999999' 
TABS,ioos:station:TABS:E:1,1995-12-01T10:30:00Z,27.3383,-97.1000,2.0,197.6241831,27.04966728,-99999.0,'11111222,11111222,99999999' 
TABS,ioos:station:TABS:E:1,1995-12-01T11:00:00Z,27.3383,-97.1000,2.0,194.4824639,27.3903797,-99999.0,'11111222,11111222,99999999' 
TABS,ioos:station:TABS:E:1,1995-12-01T11:30:00Z,27.3383,-97.1000,2.0,192.5617508,28.092499,-99999.0,'11111222,11111222,99999999' 
TABS,ioos:station:TABS:E:1,1995-12-01T12:00:00Z,27.3383,-97.1000,2.0,190.1007452,28.90806981,-99999.0,'11111222,11111222,99999999' 
TABS,ioos:station:TABS:E:1,1995-12-01T12:30:00Z,27.3383,-97.1000,2.0,188.1241758,28.44549173,-99999.0,'11111222,11111222,99999999' 
TABS,ioos:station:TABS:E:1,1995-12-01T13:00:00Z,27.3383,-97.1000,2.0,184.4309743,27.05085951,-99999.0,'11111222,11111222,99999999' 
TABS,ioos:station:TABS:E:1,1995-12-01T13:30:00Z,27.3383,-97.1000,2.0,185.604727,25.9038472,-99999.0,'11111222,11111222,99999999' 
TABS,ioos:station:TABS:E:1,1995-12-01T14:00:00Z,27.3383,-97.1000,2.0,183.6397589,25.8321118,-99999.0,'11111222,11111222,99999999' 
TABS,ioos:station:TABS:E:1,1995-12-01T14:30:00Z,27.3383,-97.1000,2.0,179.9997895,25.18,-99999.0,'11111222,11111222,99999999' 
TABS,ioos:station:TABS:E:1,1995-12-01T15:00:00Z,27.3383,-97.1000,2.0,180.3452173,24.88045217,-99999.0,'11111222,11111222,99999999' 
TABS,ioos:station:TABS:E:1,1995-12-01T15:30:00Z,27.3383,-97.1000,2.0,179.2788253,23.84188751,-99999.0,'11111222,11111222,99999999' 
TABS,ioos:station:TABS:E:1,1995-12-01T16:00:00Z,27.3383,-97.1000,2.0,179.9997895,22.65,-99999.0,'11111222,11111222,99999999' 
TABS,ioos:station:TABS:E:1,1995-12-01T16:30:00Z,27.3383,-97.1000,2.0,179.2095549,21.75206887,-99999.0,'11111222,11111222,99999999' 
TABS,ioos:station:TABS:E:1,1995-12-01T17:00:00Z,27.3383,-97.1000,2.0,177.9841159,21.32319394,-99999.0,'11111222,11111222,99999999' 
TABS,ioos:station:TABS:E:1,1995-12-01T17:30:00Z,27.3383,-97.1000,2.0,174.8392586,19.90066582,-99999.0,'11111222,11111222,99999999' 
TABS,ioos:station:TABS:E:1,1995-12-01T18:00:00Z,27.3383,-97.1000,2.0,175.7005852,19.87592765,-99999.0,'11111222,11111222,99999999' 
TABS,ioos:station:TABS:E:1,1995-12-01T18:30:00Z,27.3383,-97.1000,2.0,177.4091251,19.69012443,-99999.0,'11111222,11111222,99999999' 
TABS,ioos:station:TABS:E:1,1995-12-01T19:00:00Z,27.3383,-97.1000,2.0,177.4479917,19.98982241,-99999.0,'11111222,11111222,99999999' 
TABS,ioos:station:TABS:E:1,1995-12-01T19:30:00Z,27.3383,-97.1000,2.0,172.8817512,20.41735781,-99999.0,'11111222,11111222,99999999' 
TABS,ioos:station:TABS:E:1,1995-12-01T20:00:00Z,27.3383,-97.1000,2.0,164.236942,24.14810966,-99999.0,'11111222,11111222,99999999' 
TABS,ioos:station:TABS:E:1,1995-12-01T20:30:00Z,27.3383,-97.1000,2.0,165.9761437,22.11924954,-99999.0,'11111222,11111222,99999999' 
TABS,ioos:station:TABS:E:1,1995-12-01T21:00:00Z,27.3383,-97.1000,2.0,167.8200664,21.18690633,-99999.0,'11111222,11111222,99999999' 
TABS,ioos:station:TABS:E:1,1995-12-01T21:30:00Z,27.3383,-97.1000,2.0,168.2584486,23.44046501,-99999.0,'11111222,11111222,99999999' 
TABS,ioos:station:TABS:E:1,1995-12-01T22:00:00Z,27.3383,-97.1000,2.0,166.9858969,24.46846338,-99999.0,'11111222,11111222,99999999' 
TABS,ioos:station:TABS:E:1,1995-12-01T22:30:00Z,27.3383,-97.1000,2.0,171.8662111,23.18320297,-99999.0,'11111222,11111222,99999999' 
TABS,ioos:station:TABS:E:1,1995-12-01T23:00:00Z,27.3383,-97.1000,2.0,173.0699552,22.21226913,-99999.0,'11111222,11111222,99999999' 
TABS,ioos:station:TABS:E:1,1995-12-01T23:30:00Z,27.3383,-97.1000,2.0,171.0920213,20.21380222,-99999.0,'11111222,11111222,99999999' 
TABS,ioos:station:TABS:E:1,1995-12-02T00:00:00Z,27.3383,-97.1000,2.0,175.0457421,18.99094521,-99999.0,'11111222,11111222,99999999' 
TABS,ioos:station:TABS:E:1,1995-12-02T00:30:00Z,27.3383,-97.1000,2.0,174.3765934,18.26790902,-99999.0,'11111222,11111222,99999999' 
TABS,ioos:station:TABS:E:1,1995-12-02T01:00:00Z,27.3383,-97.1000,2.0,175.7493584,18.07972621,-99999.0,'11111222,11111222,99999999' 
TABS,ioos:station:TABS:E:1,1995-12-02T01:30:00Z,27.3383,-97.1000,2.0,179.9997895,15.65,-99999.0,'11111222,11111222,99999999' 
TABS,ioos:station:TABS:E:1,1995-12-02T02:00:00Z,27.3383,-97.1000,2.0,171.5857461,16.26506994,-99999.0,'11111222,11111222,99999999' 
TABS,ioos:station:TABS:E:1,1995-12-02T02:30:00Z,27.3383,-97.1000,2.0,169.245559,15.16637399,-99999.0,'11111222,11111222,99999999' 
TABS,ioos:station:TABS:E:1,1995-12-02T03:00:00Z,27.3383,-97.1000,2.0,168.0515578,15.84324462,-99999.0,'11111222,11111222,99999999' 
TABS,ioos:station:TABS:E:1,1995-12-02T03:30:00Z,27.3383,-97.1000,2.0,171.4025734,14.91762045,-99999.0,'11111222,11111222,99999999' 
TABS,ioos:station:TABS:E:1,1995-12-02T04:00:00Z,27.3383,-97.1000,2.0,171.0427166,13.42369919,-99999.0,'11111222,11111222,99999999' 
TABS,ioos:station:TABS:E:1,1995-12-02T04:30:00Z,27.3383,-97.1000,2.0,172.2248906,13.23163633,-99999.0,'11111222,11111222,99999999' 
TABS,ioos:station:TABS:E:1,1995-12-02T05:00:00Z,27.3383,-97.1000,2.0,167.1134996,12.68959416,-99999.0,'11111222,11111222,99999999' 
TABS,ioos:station:TABS:E:1,1995-12-02T05:30:00Z,27.3383,-97.1000,2.0,164.6823415,11.28072693,-99999.0,'11111222,11111222,99999999' 
TABS,ioos:station:TABS:E:1,1995-12-02T06:00:00Z,27.3383,-97.1000,2.0,164.7969359,12.50772961,-99999.0,'11111222,11111222,99999999' 
TABS,ioos:station:TABS:E:1,1995-12-02T06:30:00Z,27.3383,-97.1000,2.0,157.8229414,13.03423569,-99999.0,'11111222,11111222,99999999' 
TABS,ioos:station:TABS:E:1,1995-12-02T07:00:00Z,27.3383,-97.1000,2.0,161.1579414,12.91190536,-99999.0,'11111222,11111222,99999999' 
TABS,ioos:station:TABS:E:1,1995-12-02T07:30:00Z,27.3383,-97.1000,2.0,156.9580681,12.95342812,-99999.0,'11111222,11111222,99999999' 
TABS,ioos:station:TABS:E:1,1995-12-02T08:00:00Z,27.3383,-97.1000,2.0,151.3157026,14.27140147,-99999.0,'11111222,11111222,99999999' 
TABS,ioos:station:TABS:E:1,1995-12-02T08:30:00Z,27.3383,-97.1000,2.0,151.475941,13.73748521,-99999.0,'11111222,11111222,99999999' 
TABS,ioos:station:TABS:E:1,1995-12-02T09:00:00Z,27.3383,-97.1000,2.0,150.8314513,14.6703306,-99999.0,'11111222,11111222,99999999' 
TABS,ioos:station:TABS:E:1,1995-12-02T09:30:00Z,27.3383,-97.1000,2.0,151.5822179,16.6003012,-99999.0,'11111222,11111222,99999999' 
TABS,ioos:station:TABS:E:1,1995-12-02T10:00:00Z,27.3383,-97.1000,2.0,150.1186332,16.15805062,-99999.0,'11111222,11111222,99999999' 
TABS,ioos:station:TABS:E:1,1995-12-02T10:30:00Z,27.3383,-97.1000,2.0,149.7749591,15.69342537,-99999.0,'11111222,11111222,99999999' 
TABS,ioos:station:TABS:E:1,1995-12-02T11:00:00Z,27.3383,-97.1000,2.0,149.2077858,17.17051543,-99999.0,'11111222,11111222,99999999' 
TABS,ioos:station:TABS:E:1,1995-12-02T11:30:00Z,27.3383,-97.1000,2.0,152.0939249,17.20007267,-99999.0,'11111222,11111222,99999999' 
TABS,ioos:station:TABS:E:1,1995-12-02T12:00:00Z,27.3383,-97.1000,2.0,151.3131822,17.99926943,-99999.0,'11111222,11111222,99999999' 
TABS,ioos:station:TABS:E:1,1995-12-02T12:30:00Z,27.3383,-97.1000,2.0,151.5407187,18.13100108,-99999.0,'11111222,11111222,99999999' 
TABS,ioos:station:TABS:E:1,1995-12-02T13:00:00Z,27.3383,-97.1000,2.0,152.1576292,17.85720303,-99999.0,'11111222,11111222,99999999' 
TABS,ioos:station:TABS:E:1,1995-12-02T13:30:00Z,27.3383,-97.1000,2.0,150.0716511,18.21955543,-99999.0,'11111222,11111222,99999999' 
TABS,ioos:station:TABS:E:1,1995-12-02T14:00:00Z,27.3383,-97.1000,2.0,153.2112815,17.1954936,-99999.0,'11111222,11111222,99999999' 
TABS,ioos:station:TABS:E:1,1995-12-02T14:30:00Z,27.3383,-97.1000,2.0,153.8572626,17.58938885,-99999.0,'11111222,11111222,99999999' 
TABS,ioos:station:TABS:E:1,1995-12-02T15:00:00Z,27.3383,-97.1000,2.0,152.8056747,17.92092911,-99999.0,'11111222,11111222,99999999' 
TABS,ioos:station:TABS:E:1,1995-12-02T15:30:00Z,27.3383,-97.1000,2.0,149.9595169,17.55859049,-99999.0,'11111222,11111222,99999999' 
TABS,ioos:station:TABS:E:1,1995-12-02T16:00:00Z,27.3383,-97.1000,2.0,150.2027484,17.68860085,-99999.0,'11111222,11111222,99999999' 
TABS,ioos:station:TABS:E:1,1995-12-02T16:30:00Z,27.3383,-97.1000,2.0,151.6402936,19.13671079,-99999.0,'11111222,11111222,99999999' 
TABS,ioos:station:TABS:E:1,1995-12-02T17:00:00Z,27.3383,-97.1000,2.0,150.2584581,20.41983839,-99999.0,'11111222,11111222,99999999' 
TABS,ioos:station:TABS:E:1,1995-12-02T17:30:00Z,27.3383,-97.1000,2.0,150.0071251,22.36491225,-99999.0,'11111222,11111222,99999999' 
TABS,ioos:station:TABS:E:1,1995-12-02T18:00:00Z,27.3383,-97.1000,2.0,150.559739,21.22016258,-99999.0,'11111222,11111222,99999999' 
TABS,ioos:station:TABS:E:1,1995-12-02T18:30:00Z,27.3383,-97.1000,2.0,151.163395,23.47032169,-99999.0,'11111222,11111222,99999999' 
TABS,ioos:station:TABS:E:1,1995-12-02T19:00:00Z,27.3383,-97.1000,2.0,151.9811816,23.79942226,-99999.0,'11111222,11111222,99999999' 
TABS,ioos:station:TABS:E:1,1995-12-02T19:30:00Z,27.3383,-97.1000,2.0,155.5580866,21.60630695,-99999.0,'11111222,11111222,99999999' 
TABS,ioos:station:TABS:E:1,1995-12-02T20:00:00Z,27.3383,-97.1000,2.0,158.1181218,21.19714368,-99999.0,'11111222,11111222,99999999' 
TABS,ioos:station:TABS:E:1,1995-12-02T20:30:00Z,27.3383,-97.1000,2.0,159.5367119,18.76406139,-99999.0,'11111222,11111222,99999999' 
TABS,ioos:station:TABS:E:1,1995-12-02T21:00:00Z,27.3383,-97.1000,2.0,163.3401646,16.63840437,-99999.0,'11111222,11111222,99999999' 
TABS,ioos:station:TABS:E:1,1995-12-02T21:30:00Z,27.3383,-97.1000,2.0,166.9490281,14.52518158,-99999.0,'11111222,11111222,99999999' 
TABS,ioos:station:TABS:E:1,1995-12-02T22:00:00Z,27.3383,-97.1000,2.0,174.0280525,12.87989519,-99999.0,'11111222,11111222,99999999' 
TABS,ioos:station:TABS:E:1,1995-12-02T22:30:00Z,27.3383,-97.1000,2.0,170.9790363,12.3730352,-99999.0,'11111222,11111222,99999999' 
TABS,ioos:station:TABS:E:1,1995-12-02T23:00:00Z,27.3383,-97.1000,2.0,173.5823548,10.64671311,-99999.0,'11111222,11111222,99999999' 
TABS,ioos:station:TABS:E:1,1995-12-02T23:30:00Z,27.3383,-97.1000,2.0,176.1619142,11.20512829,-99999.0,'11111222,11111222,99999999' 
TABS,ioos:station:TABS:E:1,1995-12-03T00:00:00Z,27.3383,-97.1000,2.0,176.4010298,9.558849303,-99999.0,'11133222,11111222,99999999' 
TABS,ioos:station:TABS:E:1,1995-12-03T00:30:00Z,27.3383,-97.1000,2.0,181.0875508,7.901423922,-99999.0,'11133222,11111222,99999999' 
TABS,ioos:station:TABS:E:1,1995-12-03T01:00:00Z,27.3383,-97.1000,2.0,179.9997895,8.34,-99999.0,'11133222,11111222,99999999' 
TABS,ioos:station:TABS:E:1,1995-12-03T01:30:00Z,27.3383,-97.1000,2.0,188.6327611,6.928499116,-99999.0,'11133222,11111222,99999999' 
TABS,ioos:station:TABS:E:1,1995-12-03T02:00:00Z,27.3383,-97.1000,2.0,187.1721117,6.007004245,-99999.0,'11133222,11111222,99999999' 
TABS,ioos:station:TABS:E:1,1995-12-03T02:30:00Z,27.3383,-97.1000,2.0,190.1957539,4.236909251,-99999.0,'11133222,11111222,99999999' 
TABS,ioos:station:TABS:E:1,1995-12-03T03:00:00Z,27.3383,-97.1000,2.0,203.1762295,3.404776057,-99999.0,'11133222,11111222,99999999' 
TABS,ioos:station:TABS:E:1,1995-12-03T03:30:00Z,27.3383,-97.1000,2.0,216.3314352,2.768122107,-99999.0,'11133222,11111222,99999999' 
TABS,ioos:station:TABS:E:1,1995-12-03T04:00:00Z,27.3383,-97.1000,2.0,239.1491273,1.735569071,-99999.0,'11133222,11111222,99999999' 
TABS,ioos:station:TABS:E:1,1995-12-03T04:30:00Z,27.3383,-97.1000,2.0,249.2854527,1.272242115,-99999.0,'11133222,11111222,99999999' 
TABS,ioos:station:TABS:E:1,1995-12-03T05:00:00Z,27.3383,-97.1000,2.0,294.6442638,2.134408583,-99999.0,'11133222,11111222,99999999' 
TABS,ioos:station:TABS:E:1,1995-12-03T05:30:00Z,27.3383,-97.1000,2.0,324.7205089,3.099193443,-99999.0,'11133222,11111222,99999999' 
TABS,ioos:station:TABS:E:1,1995-12-03T06:00:00Z,27.3383,-97.1000,2.0,339.1838714,3.348581789,-99999.0,'11133222,11111222,99999999' 
TABS,ioos:station:TABS:E:1,1995-12-03T06:30:00Z,27.3383,-97.1000,2.0,0.000210459,5.22,-99999.0,'11133222,11111222,99999999' 
TABS,ioos:station:TABS:E:1,1995-12-03T07:00:00Z,27.3383,-97.1000,2.0,13.70498065,6.289053983,-99999.0,'11133222,11111222,99999999' 
TABS,ioos:station:TABS:E:1,1995-12-03T07:30:00Z,27.3383,-97.1000,2.0,19.78542269,7.917379617,-99999.0,'11133222,11111222,99999999' 
TABS,ioos:station:TABS:E:1,1995-12-03T08:00:00Z,27.3383,-97.1000,2.0,26.96868331,9.525885786,-99999.0,'11133222,11111222,99999999' 
TABS,ioos:station:TABS:E:1,1995-12-03T08:30:00Z,27.3383,-97.1000,2.0,26.56519952,9.659813663,-99999.0,'11133222,11111222,99999999' 
TABS,ioos:station:TABS:E:1,1995-12-03T09:00:00Z,27.3383,-97.1000,2.0,34.51375023,11.57778908,-99999.0,'11111222,11111222,99999999' 
TABS,ioos:station:TABS:E:1,1995-12-03T09:30:00Z,27.3383,-97.1000,2.0,30.20657757,11.54800849,-99999.0,'11111222,11111222,99999999' 
TABS,ioos:station:TABS:E:1,1995-12-03T10:00:00Z,27.3383,-97.1000,2.0,36.74852267,13.20402969,-99999.0,'11111222,11111222,99999999' 
TABS,ioos:station:TABS:E:1,1995-12-03T10:30:00Z,27.3383,-97.1000,2.0,41.72161344,12.98251516,-99999.0,'11111222,11111222,99999999' 
TABS,ioos:station:TABS:E:1,1995-12-03T11:00:00Z,27.3383,-97.1000,2.0,46.77218972,13.49097847,-99999.0,'11111222,11111222,99999999' 
TABS,ioos:station:TABS:E:1,1995-12-03T11:30:00Z,27.3383,-97.1000,2.0,50.28187172,12.59756326,-99999.0,'11111222,11111222,99999999' 
TABS,ioos:station:TABS:E:1,1995-12-03T12:00:00Z,27.3383,-97.1000,2.0,58.50421988,13.11163224,-99999.0,'11111222,11111222,99999999' 
TABS,ioos:station:TABS:E:1,1995-12-03T12:30:00Z,27.3383,-97.1000,2.0,60.86699368,13.47466141,-99999.0,'11111222,11111222,99999999' 
TABS,ioos:station:TABS:E:1,1995-12-03T13:00:00Z,27.3383,-97.1000,2.0,62.88848718,14.06550746,-99999.0,'11111222,11111222,99999999' 
TABS,ioos:station:TABS:E:1,1995-12-03T13:30:00Z,27.3383,-97.1000,2.0,67.47608258,15.16694432,-99999.0,'11111222,11111222,99999999' 
TABS,ioos:station:TABS:E:1,1995-12-03T14:00:00Z,27.3383,-97.1000,2.0,72.46865914,14.839252,-99999.0,'11111222,11111222,99999999' 
TABS,ioos:station:TABS:E:1,1995-12-03T14:30:00Z,27.3383,-97.1000,2.0,76.4897555,15.32404646,-99999.0,'11111222,11111222,99999999' 
TABS,ioos:station:TABS:E:1,1995-12-03T15:00:00Z,27.3383,-97.1000,2.0,79.3852079,14.5489656,-99999.0,'11111222,11111222,99999999' 
TABS,ioos:station:TABS:E:1,1995-12-03T15:30:00Z,27.3383,-97.1000,2.0,79.82451295,13.47189667,-99999.0,'11111222,11111222,99999999' 
TABS,ioos:station:TABS:E:1,1995-12-03T16:00:00Z,27.3383,-97.1000,2.0,82.787958,13.06335332,-99999.0,'11111222,11111222,99999999' 
TABS,ioos:station:TABS:E:1,1995-12-03T16:30:00Z,27.3383,-97.1000,2.0,84.36933041,12.12852011,-99999.0,'11111222,11111222,99999999' 
TABS,ioos:station:TABS:E:1,1995-12-03T17:00:00Z,27.3383,-97.1000,2.0,81.19196901,12.66941198,-99999.0,'11111222,11111222,99999999' 
TABS,ioos:station:TABS:E:1,1995-12-03T17:30:00Z,27.3383,-97.1000,2.0,88.42055703,10.88413524,-99999.0,'11111222,11111222,99999999' 
TABS,ioos:station:TABS:E:1,1995-12-03T18:00:00Z,27.3383,-97.1000,2.0,91.55797435,11.03407903,-99999.0,'11111222,11111222,99999999' 
TABS,ioos:station:TABS:E:1,1995-12-03T18:30:00Z,27.3383,-97.1000,2.0,85.32354419,10.91634096,-99999.0,'11111222,11111222,99999999' 
TABS,ioos:station:TABS:E:1,1995-12-03T19:00:00Z,27.3383,-97.1000,2.0,82.30672379,11.13018419,-99999.0,'11111222,11111222,99999999' 
TABS,ioos:station:TABS:E:1,1995-12-03T19:30:00Z,27.3383,-97.1000,2.0,84.67023518,9.581424737,-99999.0,'11133222,11111222,99999999' 
TABS,ioos:station:TABS:E:1,1995-12-03T20:00:00Z,27.3383,-97.1000,2.0,79.93545533,9.384412608,-99999.0,'11133222,11111222,99999999' 
TABS,ioos:station:TABS:E:1,1995-12-03T20:30:00Z,27.3383,-97.1000,2.0,80.37922076,8.915391186,-99999.0,'11133222,11111222,99999999' 
TABS,ioos:station:TABS:E:1,1995-12-03T21:00:00Z,27.3383,-97.1000,2.0,71.54761011,10.36278437,-99999.0,'11111222,11111222,99999999' 
TABS,ioos:station:TABS:E:1,1995-12-03T21:30:00Z,27.3383,-97.1000,2.0,68.17452209,8.822386299,-99999.0,'11133222,11111222,99999999' 
TABS,ioos:station:TABS:E:1,1995-12-03T22:00:00Z,27.3383,-97.1000,2.0,66.23767577,8.140079852,-99999.0,'11133222,11111222,99999999' 
TABS,ioos:station:TABS:E:1,1995-12-03T22:30:00Z,27.3383,-97.1000,2.0,64.41346335,7.59479427,-99999.0,'11133222,11111222,99999999' 
TABS,ioos:station:TABS:E:1,1995-12-03T23:00:00Z,27.3383,-97.1000,2.0,58.35957043,6.824404736,-99999.0,'11133222,11111222,99999999' 
TABS,ioos:station:TABS:E:1,1995-12-03T23:30:00Z,27.3383,-97.1000,2.0,50.94695438,6.142458791,-99999.0,'11133222,11111222,99999999' 
TABS,ioos:station:TABS:E:1,1995-12-04T00:00:00Z,27.3383,-97.1000,2.0,49.26798855,5.70094729,-99999.0,'11133222,11111222,99999999' 
TABS,ioos:station:TABS:E:1,1995-12-04T00:30:00Z,27.3383,-97.1000,2.0,38.8409566,5.931509083,-99999.0,'11133222,11111222,99999999' 
TABS,ioos:station:TABS:E:1,1995-12-04T01:00:00Z,27.3383,-97.1000,2.0,28.57795613,5.602570838,-99999.0,'11133222,11111222,99999999' 
TABS,ioos:station:TABS:E:1,1995-12-04T01:30:00Z,27.3383,-97.1000,2.0,4.11183455,6.27615328,-99999.0,'11133222,11111222,99999999' 
TABS,ioos:station:TABS:E:1,1995-12-04T02:00:00Z,27.3383,-97.1000,2.0,4.899291456,7.025667228,-99999.0,'11133222,11111222,99999999' 
TABS,ioos:station:TABS:E:1,1995-12-04T02:30:00Z,27.3383,-97.1000,2.0,3.456821548,7.46357823,-99999.0,'11133222,11111222,99999999' 
TABS,ioos:station:TABS:E:1,1995-12-04T03:00:00Z,27.3383,-97.1000,2.0,1.890469754,9.094949148,-99999.0,'11133222,11111222,99999999' 
TABS,ioos:station:TABS:E:1,1995-12-04T03:30:00Z,27.3383,-97.1000,2.0,0.000210459,10.73,-99999.0,'11111222,11111222,99999999' 
TABS,ioos:station:TABS:E:1,1995-12-04T04:00:00Z,27.3383,-97.1000,2.0,357.7534952,11.47882398,-99999.0,'11111222,11111222,99999999' 
TABS,ioos:station:TABS:E:1,1995-12-04T04:30:00Z,27.3383,-97.1000,2.0,0.000210459,12.52,-99999.0,'11111222,11111222,99999999' 
TABS,ioos:station:TABS:E:1,1995-12-04T05:00:00Z,27.3383,-97.1000,2.0,2.533763423,13.57326785,-99999.0,'11111222,11111222,99999999' 
TABS,ioos:station:TABS:E:1,1995-12-04T05:30:00Z,27.3383,-97.1000,2.0,4.806003974,12.41364169,-99999.0,'11111222,11111222,99999999' 
TABS,ioos:station:TABS:E:1,1995-12-04T06:00:00Z,27.3383,-97.1000,2.0,10.28964835,13.32428234,-99999.0,'11111222,11111222,99999999' 
TABS,ioos:station:TABS:E:1,1995-12-04T06:30:00Z,27.3383,-97.1000,2.0,17.45746967,13.90023381,-99999.0,'11111222,11111222,99999999' 
TABS,ioos:station:TABS:E:1,1995-12-04T07:00:00Z,27.3383,-97.1000,2.0,20.04865133,13.47664647,-99999.0,'11111222,11111222,99999999' 
TABS,ioos:station:TABS:E:1,1995-12-04T07:30:00Z,27.3383,-97.1000,2.0,25.76314933,14.05730059,-99999.0,'11111222,11111222,99999999' 
TABS,ioos:station:TABS:E:1,1995-12-04T08:00:00Z,27.3383,-97.1000,2.0,31.80819035,13.85001444,-99999.0,'11111222,11111222,99999999' 
TABS,ioos:station:TABS:E:1,1995-12-04T08:30:00Z,27.3383,-97.1000,2.0,38.64652739,13.35441874,-99999.0,'11111222,11111222,99999999' 
TABS,ioos:station:TABS:E:1,1995-12-04T09:00:00Z,27.3383,-97.1000,2.0,40.91644902,14.79488087,-99999.0,'11111222,11111222,99999999' 
TABS,ioos:station:TABS:E:1,1995-12-04T09:30:00Z,27.3383,-97.1000,2.0,42.92608479,14.65378108,-99999.0,'11111222,11111222,99999999' 
TABS,ioos:station:TABS:E:1,1995-12-04T10:00:00Z,27.3383,-97.1000,2.0,47.68226459,15.71498648,-99999.0,'11111222,11111222,99999999' 
TABS,ioos:station:TABS:E:1,1995-12-04T10:30:00Z,27.3383,-97.1000,2.0,53.59442402,14.81048615,-99999.0,'11111222,11111222,99999999' 
TABS,ioos:station:TABS:E:1,1995-12-04T11:00:00Z,27.3383,-97.1000,2.0,57.10046394,15.07818623,-99999.0,'11111222,11111222,99999999' 
TABS,ioos:station:TABS:E:1,1995-12-04T11:30:00Z,27.3383,-97.1000,2.0,58.63492922,15.17799723,-99999.0,'11111222,11111222,99999999' 
TABS,ioos:station:TABS:E:1,1995-12-04T12:00:00Z,27.3383,-97.1000,2.0,60.96561991,13.80488682,-99999.0,'11111222,11111222,99999999' 
TABS,ioos:station:TABS:E:1,1995-12-04T12:30:00Z,27.3383,-97.1000,2.0,66.61365088,12.0172293,-99999.0,'11111222,11111222,99999999' 
TABS,ioos:station:TABS:E:1,1995-12-04T13:00:00Z,27.3383,-97.1000,2.0,70.37058525,11.07354054,-99999.0,'11111222,11111222,99999999' 
TABS,ioos:station:TABS:E:1,1995-12-04T13:30:00Z,27.3383,-97.1000,2.0,74.53998707,10.05378038,-99999.0,'11111222,11111222,99999999' 
TABS,ioos:station:TABS:E:1,1995-12-04T14:00:00Z,27.3383,-97.1000,2.0,70.08618928,9.189477678,-99999.0,'11133222,11111222,99999999' 
TABS,ioos:station:TABS:E:1,1995-12-04T14:30:00Z,27.3383,-97.1000,2.0,61.32866525,9.004021324,-99999.0,'11133222,11111222,99999999' 
TABS,ioos:station:TABS:E:1,1995-12-04T15:00:00Z,27.3383,-97.1000,2.0,58.38844701,9.100296698,-99999.0,'11133222,11111222,99999999' 
TABS,ioos:station:TABS:E:1,1995-12-04T15:30:00Z,27.3383,-97.1000,2.0,61.17451432,6.802940541,-99999.0,'11133222,11111222,99999999' 
TABS,ioos:station:TABS:E:1,1995-12-04T16:00:00Z,27.3383,-97.1000,2.0,55.97537216,6.648195244,-99999.0,'11133222,11111222,99999999' 
TABS,ioos:station:TABS:E:1,1995-12-04T16:30:00Z,27.3383,-97.1000,2.0,76.79100947,5.207782638,-99999.0,'11133222,11111222,99999999' 
TABS,ioos:station:TABS:E:1,1995-12-04T17:00:00Z,27.3383,-97.1000,2.0,82.52576621,3.45939301,-99999.0,'11133222,11111222,99999999' 
TABS,ioos:station:TABS:E:1,1995-12-04T17:30:00Z,27.3383,-97.1000,2.0,85.20988048,1.796273921,-99999.0,'11133222,11111222,99999999' 
TABS,ioos:station:TABS:E:1,1995-12-04T18:00:00Z,27.3383,-97.1000,2.0,90.0,0.6,-99999.0,'11133222,11111222,99999999' 